Tracking 19286 objects as of 19-Nov-2018
HD Live streaming from Space Station
objects crossing your sky now

TSIKADA

Track TSIKADA now!
10-day predictions
TSIKADA is classified as:


NORAD ID: 23463
Int'l Code: 1995-002A
Perigee: 970.2 km
Apogee: 1,025.4 km
Inclination: 82.9 °
Period: 104.9 minutes
Semi major axis: 7368 km
RCS: 1.4564 m2 (large)
Launch date: January 24, 1995
Source: Commonwealth of Independent States (former USSR) (CIS)
Launch site: PLESETSK MISSILE AND SPACE COMPLEX (PKMTR)
aabbcc
Your satellite tracking list
Your tracking list is empty




NASA's NSSDC Master Catalog

Two Line Element Set (TLE):
1 23463U 95002A   18322.42215566  .00000029  00000-0  16152-4 0  9991
2 23463  82.9274 262.2433 0037455 266.2869 233.6385 13.72491653193045
Source of the keplerian elements: AFSPC